Time,TemperatureF,DewpointF,PressureIn,WindDirection,WindDirectionDegrees,WindSpeedMPH,WindSpeedGustMPH,Humidity,HourlyPrecipIn,Conditions,Clouds,dailyrainin,SolarRadiationWatts/m^2,SoftwareType,DateUTC
2013-03-04 00:02:00,56.0,53.3,30.05,SSW,212,6.0,6.0,91,0.00,,,0.00,0,HR-IXP-WINDi_r2_v1.2,2013-03-04 08:02:00,
2013-03-04 00:07:00,56.0,53.3,30.05,SSW,200,1.0,6.0,91,0.00,,,0.00,0,HR-IXP-WINDi_r2_v1.2,2013-03-04 08:07:00,
2013-03-04 00:12:00,55.9,53.2,30.04,SW,229,4.0,7.0,91,0.00,,,0.00,0,HR-IXP-WINDi_r2_v1.2,2013-03-04 08:12:00,
2013-03-04 00:17:00,55.8,53.1,30.04,SW,221,5.0,11.0,91,0.00,,,0.00,0,HR-IXP-WINDi_r2_v1.2,2013-03-04 08:17:00,
2013-03-04 00:23:00,55.7,53.0,30.05,SW,219,7.0,11.0,91,0.00,,,0.00,0,HR-IXP-WINDi_r2_v1.2,2013-03-04 08:23:00,
2013-03-04 00:28:00,55.6,52.9,30.05,SSW,210,2.0,8.0,91,0.00,,,0.00,0,HR-IXP-WINDi_r2_v1.2,2013-03-04 08:28:00,
2013-03-04 00:33:00,55.6,52.9,30.05,South,185,1.0,7.0,91,0.00,,,0.00,0,HR-IXP-WINDi_r2_v1.2,2013-03-04 08:33:00,
2013-03-04 00:38:00,55.6,52.6,30.05,SSW,213,0.0,7.0,90,0.00,,,0.00,0,HR-IXP-WINDi_r2_v1.2,2013-03-04 08:38:00,
2013-03-04 00:44:00,55.6,52.6,30.06,SW,215,0.0,4.0,90,0.00,,,0.00,0,HR-IXP-WINDi_r2_v1.2,2013-03-04 08:44:00,
2013-03-04 00:49:00,55.7,52.7,30.06,SSW,213,2.0,4.0,90,0.00,,,0.00,0,HR-IXP-WINDi_r2_v1.2,2013-03-04 08:49:00,
2013-03-04 00:54:00,55.7,52.7,30.06,SSW,205,0.0,4.0,90,0.00,,,0.00,0,HR-IXP-WINDi_r2_v1.2,2013-03-04 08:54:00,
2013-03-04 00:59:00,55.7,52.7,30.06,SSW,207,2.0,4.0,90,0.00,,,0.00,0,HR-IXP-WINDi_r2_v1.2,2013-03-04 08:59:00,
2013-03-04 01:04:00,55.7,52.7,30.06,SSW,207,0.0,4.0,90,0.00,,,0.00,0,HR-IXP-WINDi_r2_v1.2,2013-03-04 09:04:00,
2013-03-04 01:10:00,55.8,52.8,30.06,SSW,200,1.0,4.0,90,0.00,,,0.00,0,HR-IXP-WINDi_r2_v1.2,2013-03-04 09:10:00,
2013-03-04 01:15:00,55.8,52.8,30.06,SW,229,5.0,5.0,90,0.00,,,0.00,0,HR-IXP-WINDi_r2_v1.2,2013-03-04 09:15:00,
2013-03-04 01:20:00,55.8,52.8,30.06,SW,227,2.0,5.0,90,0.00,,,0.00,0,HR-IXP-WINDi_r2_v1.2,2013-03-04 09:20:00,
2013-03-04 01:25:00,55.8,52.8,30.06,SW,227,2.0,4.0,90,0.00,,,0.00,0,HR-IXP-WINDi_r2_v1.2,2013-03-04 09:25:00,
2013-03-04 01:30:00,55.8,52.8,30.06,WSW,240,1.0,4.0,90,0.00,,,0.00,0,HR-IXP-WINDi_r2_v1.2,2013-03-04 09:30:00,
2013-03-04 01:36:00,55.8,52.8,30.06,WSW,240,0.0,4.0,90,0.00,,,0.00,0,HR-IXP-WINDi_r2_v1.2,2013-03-04 09:36:00,
2013-03-04 01:41:00,55.8,52.8,30.06,SW,225,2.0,4.0,90,0.00,,,0.00,0,HR-IXP-WINDi_r2_v1.2,2013-03-04 09:41:00,
2013-03-04 01:46:00,55.9,52.9,30.06,SW,226,0.0,4.0,90,0.00,,,0.00,0,HR-IXP-WINDi_r2_v1.2,2013-03-04 09:46:00,
2013-03-04 01:51:00,55.9,52.9,30.06,SW,225,2.0,4.0,90,0.00,,,0.00,0,HR-IXP-WINDi_r2_v1.2,2013-03-04 09:51:00,
2013-03-04 01:56:00,55.8,52.8,30.06,SSW,205,2.0,3.0,90,0.00,,,0.00,0,HR-IXP-WINDi_r2_v1.2,2013-03-04 09:56:00,
2013-03-04 02:02:00,55.8,52.8,30.05,South,190,1.0,5.0,90,0.00,,,0.00,0,HR-IXP-WINDi_r2_v1.2,2013-03-04 10:02:00,
2013-03-04 02:07:00,55.6,52.6,30.05,SSW,192,2.0,5.0,90,0.00,,,0.00,0,HR-IXP-WINDi_r2_v1.2,2013-03-04 10:07:00,
2013-03-04 02:12:00,55.7,52.7,30.05,SSW,205,2.0,5.0,90,0.00,,,0.00,0,HR-IXP-WINDi_r2_v1.2,2013-03-04 10:12:00,
2013-03-04 02:17:00,55.7,52.7,30.06,SSW,205,2.0,5.0,90,0.00,,,0.00,0,HR-IXP-WINDi_r2_v1.2,2013-03-04 10:17:00,
2013-03-04 02:23:00,55.8,52.8,30.06,SSW,207,1.0,3.0,90,0.00,,,0.00,0,HR-IXP-WINDi_r2_v1.2,2013-03-04 10:23:00,
2013-03-04 02:28:00,55.8,52.8,30.06,SSW,207,0.0,2.0,90,0.00,,,0.00,0,HR-IXP-WINDi_r2_v1.2,2013-03-04 10:28:00,
2013-03-04 02:33:00,55.8,52.5,30.06,SSW,207,0.0,2.0,89,0.00,,,0.00,0,HR-IXP-WINDi_r2_v1.2,2013-03-04 10:33:00,
2013-03-04 02:38:00,55.7,52.4,30.06,SSW,207,1.0,1.0,89,0.00,,,0.00,0,HR-IXP-WINDi_r2_v1.2,2013-03-04 10:38:00,
2013-03-04 02:43:00,55.7,52.4,30.05,SSW,207,0.0,2.0,89,0.00,,,0.00,0,HR-IXP-WINDi_r2_v1.2,2013-03-04 10:43:00,
2013-03-04 02:49:00,55.7,52.4,30.06,SSW,207,0.0,2.0,89,0.00,,,0.00,0,HR-IXP-WINDi_r2_v1.2,2013-03-04 10:49:00,
2013-03-04 02:54:00,55.7,52.4,30.06,SSW,207,0.0,1.0,89,0.00,,,0.00,0,HR-IXP-WINDi_r2_v1.2,2013-03-04 10:54:00,
2013-03-04 02:59:00,55.8,52.5,30.06,SSW,207,0.0,0.0,89,0.00,,,0.00,0,HR-IXP-WINDi_r2_v1.2,2013-03-04 10:59:00,
2013-03-04 03:04:00,55.9,52.6,30.06,SSW,207,0.0,0.0,89,0.00,,,0.00,0,HR-IXP-WINDi_r2_v1.2,2013-03-04 11:04:00,
2013-03-04 03:09:00,55.9,52.6,30.06,SSW,207,0.0,1.0,89,0.00,,,0.00,0,HR-IXP-WINDi_r2_v1.2,2013-03-04 11:09:00,
2013-03-04 03:15:00,55.9,52.6,30.06,SSW,207,0.0,2.0,89,0.00,,,0.00,0,HR-IXP-WINDi_r2_v1.2,2013-03-04 11:15:00,
2013-03-04 03:20:00,55.9,52.6,30.06,SSW,207,0.0,2.0,89,0.00,,,0.00,0,HR-IXP-WINDi_r2_v1.2,2013-03-04 11:20:00,
2013-03-04 03:25:00,55.9,52.3,30.06,South,190,0.0,3.0,88,0.00,,,0.00,0,HR-IXP-WINDi_r2_v1.2,2013-03-04 11:25:00,
2013-03-04 03:30:00,55.8,52.2,30.06,South,188,1.0,3.0,88,0.00,,,0.00,0,HR-IXP-WINDi_r2_v1.2,2013-03-04 11:30:00,
2013-03-04 03:36:00,55.8,52.2,30.05,South,188,1.0,2.0,88,0.00,,,0.00,0,HR-IXP-WINDi_r2_v1.2,2013-03-04 11:36:00,
2013-03-04 03:41:00,55.7,52.1,30.05,South,188,0.0,2.0,88,0.00,,,0.00,0,HR-IXP-WINDi_r2_v1.2,2013-03-04 11:41:00,
2013-03-04 03:46:00,55.6,52.0,30.05,South,188,1.0,2.0,88,0.00,,,0.00,0,HR-IXP-WINDi_r2_v1.2,2013-03-04 11:46:00,
2013-03-04 03:51:00,55.6,52.0,30.05,South,188,1.0,2.0,88,0.00,,,0.00,0,HR-IXP-WINDi_r2_v1.2,2013-03-04 11:51:00,
2013-03-04 03:56:00,55.4,52.1,30.05,South,188,0.0,2.0,89,0.00,,,0.00,0,HR-IXP-WINDi_r2_v1.2,2013-03-04 11:56:00,
2013-03-04 04:02:00,55.4,52.1,30.05,South,188,0.0,1.0,89,0.00,,,0.00,0,HR-IXP-WINDi_r2_v1.2,2013-03-04 12:02:00,
2013-03-04 04:07:00,55.3,52.0,30.05,South,188,0.0,1.0,89,0.00,,,0.00,0,HR-IXP-WINDi_r2_v1.2,2013-03-04 12:07:00,
2013-03-04 04:12:00,55.3,52.0,30.05,South,188,0.0,1.0,89,0.00,,,0.00,0,HR-IXP-WINDi_r2_v1.2,2013-03-04 12:12:00,
2013-03-04 04:17:00,55.3,52.0,30.05,South,188,0.0,0.0,89,0.00,,,0.00,0,HR-IXP-WINDi_r2_v1.2,2013-03-04 12:17:00,
2013-03-04 04:22:00,55.1,51.9,30.05,South,188,2.0,2.0,89,0.00,,,0.00,0,HR-IXP-WINDi_r2_v1.2,2013-03-04 12:22:00,
2013-03-04 04:28:00,54.9,51.7,30.05,South,188,0.0,2.0,89,0.00,,,0.00,0,HR-IXP-WINDi_r2_v1.2,2013-03-04 12:28:00,
2013-03-04 04:33:00,54.8,51.6,30.05,South,188,0.0,2.0,89,0.00,,,0.00,0,HR-IXP-WINDi_r2_v1.2,2013-03-04 12:33:00,
2013-03-04 04:38:00,54.7,51.5,30.05,South,188,0.0,1.0,89,0.00,,,0.00,0,HR-IXP-WINDi_r2_v1.2,2013-03-04 12:38:00,
2013-03-04 04:43:00,54.6,51.7,30.06,South,188,0.0,2.0,90,0.00,,,0.00,0,HR-IXP-WINDi_r2_v1.2,2013-03-04 12:43:00,
2013-03-04 04:48:00,54.5,51.6,30.05,South,188,0.0,2.0,90,0.00,,,0.00,0,HR-IXP-WINDi_r2_v1.2,2013-03-04 12:48:00,
2013-03-04 04:54:00,54.4,51.5,30.06,South,188,0.0,1.0,90,0.00,,,0.00,0,HR-IXP-WINDi_r2_v1.2,2013-03-04 12:54:00,
2013-03-04 04:59:00,54.3,51.4,30.06,South,188,0.0,1.0,90,0.00,,,0.00,0,HR-IXP-WINDi_r2_v1.2,2013-03-04 12:59:00,
2013-03-04 05:04:00,54.2,51.3,30.06,South,188,0.0,1.0,90,0.00,,,0.00,0,HR-IXP-WINDi_r2_v1.2,2013-03-04 13:04:00,
2013-03-04 05:09:00,54.1,51.2,30.06,South,188,0.0,1.0,90,0.00,,,0.00,0,HR-IXP-WINDi_r2_v1.2,2013-03-04 13:09:00,
2013-03-04 05:15:00,54.0,51.1,30.06,South,188,1.0,2.0,90,0.00,,,0.00,0,HR-IXP-WINDi_r2_v1.2,2013-03-04 13:15:00,
2013-03-04 05:20:00,53.9,51.0,30.06,South,188,0.0,2.0,90,0.00,,,0.00,0,HR-IXP-WINDi_r2_v1.2,2013-03-04 13:20:00,
2013-03-04 05:25:00,53.9,51.3,30.07,South,188,0.0,1.0,91,0.00,,,0.00,0,HR-IXP-WINDi_r2_v1.2,2013-03-04 13:25:00,
2013-03-04 05:30:00,54.0,51.4,30.07,South,188,0.0,0.0,91,0.00,,,0.00,0,HR-IXP-WINDi_r2_v1.2,2013-03-04 13:30:00,
2013-03-04 05:35:00,53.9,51.3,30.07,South,188,0.0,1.0,91,0.00,,,0.00,0,HR-IXP-WINDi_r2_v1.2,2013-03-04 13:35:00,
2013-03-04 05:40:00,54.2,51.6,30.07,South,188,0.0,1.0,91,0.00,,,0.00,0,HR-IXP-WINDi_r2_v1.2,2013-03-04 13:40:00,
2013-03-04 05:46:00,54.2,51.6,30.07,South,188,0.0,0.0,91,0.00,,,0.00,0,HR-IXP-WINDi_r2_v1.2,2013-03-04 13:46:00,
2013-03-04 05:51:00,54.3,51.7,30.07,South,188,0.0,0.0,91,0.00,,,0.00,0,HR-IXP-WINDi_r2_v1.2,2013-03-04 13:51:00,
2013-03-04 05:56:00,54.3,51.7,30.07,South,188,0.0,1.0,91,0.00,,,0.00,0,HR-IXP-WINDi_r2_v1.2,2013-03-04 13:56:00,
2013-03-04 06:01:00,54.5,51.9,30.07,South,188,0.0,1.0,91,0.00,,,0.00,0,HR-IXP-WINDi_r2_v1.2,2013-03-04 14:01:00,
2013-03-04 06:06:00,54.6,52.0,30.07,South,188,0.0,2.0,91,0.00,,,0.00,0,HR-IXP-WINDi_r2_v1.2,2013-03-04 14:06:00,
2013-03-04 06:11:00,54.6,52.0,30.07,South,188,0.0,2.0,91,0.00,,,0.00,0,HR-IXP-WINDi_r2_v1.2,2013-03-04 14:11:00,
2013-03-04 06:17:00,54.6,52.0,30.07,South,188,0.0,1.0,91,0.00,,,0.00,0,HR-IXP-WINDi_r2_v1.2,2013-03-04 14:17:00,
2013-03-04 06:22:00,54.7,52.1,30.07,South,188,0.0,1.0,91,0.00,,,0.00,5,HR-IXP-WINDi_r2_v1.2,2013-03-04 14:22:00,
2013-03-04 06:27:00,54.8,51.9,30.08,South,188,0.0,1.0,90,0.00,,,0.00,9,HR-IXP-WINDi_r2_v1.2,2013-03-04 14:27:00,
2013-03-04 06:32:00,54.8,51.9,30.08,South,188,1.0,2.0,90,0.00,,,0.00,16,HR-IXP-WINDi_r2_v1.2,2013-03-04 14:32:00,
2013-03-04 06:37:00,54.8,51.9,30.08,South,188,1.0,2.0,90,0.00,,,0.00,21,HR-IXP-WINDi_r2_v1.2,2013-03-04 14:37:00,
2013-03-04 06:43:00,54.8,51.9,30.08,South,188,0.0,2.0,90,0.00,,,0.00,21,HR-IXP-WINDi_r2_v1.2,2013-03-04 14:43:00,
2013-03-04 06:48:00,54.7,51.8,30.08,South,188,0.0,2.0,90,0.00,,,0.00,21,HR-IXP-WINDi_r2_v1.2,2013-03-04 14:48:00,
2013-03-04 06:53:00,54.6,51.7,30.09,South,188,0.0,1.0,90,0.00,,,0.00,28,HR-IXP-WINDi_r2_v1.2,2013-03-04 14:53:00,
2013-03-04 06:58:00,54.4,51.5,30.09,South,188,0.0,1.0,90,0.00,,,0.00,49,HR-IXP-WINDi_r2_v1.2,2013-03-04 14:58:00,
2013-03-04 07:03:00,54.5,51.9,30.10,South,188,1.0,1.0,91,0.00,,,0.00,47,HR-IXP-WINDi_r2_v1.2,2013-03-04 15:03:00,
2013-03-04 07:09:00,54.8,52.2,30.09,South,188,1.0,2.0,91,0.00,,,0.00,74,HR-IXP-WINDi_r2_v1.2,2013-03-04 15:09:00,
2013-03-04 07:14:00,55.0,52.4,30.10,South,188,0.0,3.0,91,0.00,,,0.00,69,HR-IXP-WINDi_r2_v1.2,2013-03-04 15:14:00,
2013-03-04 07:19:00,55.2,52.3,30.09,South,188,0.0,3.0,90,0.00,,,0.00,56,HR-IXP-WINDi_r2_v1.2,2013-03-04 15:19:00,
2013-03-04 07:24:00,55.4,52.4,30.10,South,184,2.0,2.0,90,0.00,,,0.00,123,HR-IXP-WINDi_r2_v1.2,2013-03-04 15:24:00,
2013-03-04 07:29:00,55.8,52.8,30.10,South,184,1.0,2.0,90,0.00,,,0.00,146,HR-IXP-WINDi_r2_v1.2,2013-03-04 15:29:00,
2013-03-04 07:34:00,56.2,53.2,30.10,South,182,1.0,2.0,90,0.00,,,0.00,128,HR-IXP-WINDi_r2_v1.2,2013-03-04 15:34:00,
2013-03-04 07:40:00,56.3,53.0,30.10,SSW,202,2.0,3.0,89,0.00,,,0.00,142,HR-IXP-WINDi_r2_v1.2,2013-03-04 15:40:00,
2013-03-04 07:45:00,56.5,53.2,30.10,South,170,1.0,4.0,89,0.00,,,0.00,134,HR-IXP-WINDi_r2_v1.2,2013-03-04 15:45:00,
2013-03-04 07:50:00,56.6,53.3,30.10,South,170,0.0,4.0,89,0.00,,,0.00,167,HR-IXP-WINDi_r2_v1.2,2013-03-04 15:50:00,
2013-03-04 07:55:00,57.2,53.3,30.10,SSE,163,0.0,4.0,87,0.00,,,0.00,190,HR-IXP-WINDi_r2_v1.2,2013-03-04 15:55:00,
2013-03-04 08:00:00,57.8,53.9,30.11,SSE,163,0.0,4.0,87,0.00,,,0.00,225,HR-IXP-WINDi_r2_v1.2,2013-03-04 16:00:00,
2013-03-04 08:06:00,58.2,54.0,30.10,SW,218,4.0,5.0,86,0.00,,,0.00,234,HR-IXP-WINDi_r2_v1.2,2013-03-04 16:06:00,
2013-03-04 08:11:00,57.9,53.4,30.11,WSW,253,4.0,5.0,85,0.00,,,0.00,278,HR-IXP-WINDi_r2_v1.2,2013-03-04 16:11:00,
2013-03-04 08:16:00,57.9,53.7,30.11,WSW,257,2.0,4.0,86,0.00,,,0.00,288,HR-IXP-WINDi_r2_v1.2,2013-03-04 16:16:00,
2013-03-04 08:21:00,57.7,53.2,30.11,SW,214,0.0,5.0,85,0.00,,,0.00,278,HR-IXP-WINDi_r2_v1.2,2013-03-04 16:21:00,
2013-03-04 08:26:00,58.0,53.5,30.11,WSW,252,1.0,5.0,85,0.00,,,0.00,195,HR-IXP-WINDi_r2_v1.2,2013-03-04 16:26:00,
2013-03-04 08:32:00,58.2,53.6,30.12,SW,225,1.0,4.0,85,0.00,,,0.00,169,HR-IXP-WINDi_r2_v1.2,2013-03-04 16:32:00,
2013-03-04 08:37:00,58.4,53.5,30.12,WSW,248,1.0,4.0,84,0.00,,,0.00,348,HR-IXP-WINDi_r2_v1.2,2013-03-04 16:37:00,
2013-03-04 08:42:00,58.7,53.5,30.12,SSW,196,1.0,4.0,83,0.00,,,0.00,343,HR-IXP-WINDi_r2_v1.2,2013-03-04 16:42:00,
2013-03-04 08:47:00,58.8,53.3,30.11,WSW,251,2.0,4.0,82,0.00,,,0.00,364,HR-IXP-WINDi_r2_v1.2,2013-03-04 16:47:00,
2013-03-04 08:53:00,59.0,53.4,30.12,SW,231,2.0,5.0,82,0.00,,,0.00,160,HR-IXP-WINDi_r2_v1.2,2013-03-04 16:53:00,
2013-03-04 08:58:00,58.5,53.0,30.12,SW,233,4.0,7.0,82,0.00,,,0.00,206,HR-IXP-WINDi_r2_v1.2,2013-03-04 16:58:00,
2013-03-04 09:03:00,58.2,53.0,30.12,West,266,2.0,7.0,83,0.00,,,0.00,213,HR-IXP-WINDi_r2_v1.2,2013-03-04 17:03:00,
2013-03-04 09:08:00,58.6,53.4,30.12,SSW,211,3.0,7.0,83,0.00,,,0.00,276,HR-IXP-WINDi_r2_v1.2,2013-03-04 17:08:00,
2013-03-04 09:14:00,58.7,53.5,30.12,SW,215,1.0,7.0,83,0.00,,,0.00,301,HR-IXP-WINDi_r2_v1.2,2013-03-04 17:14:00,
2013-03-04 09:19:00,58.9,53.0,30.12,SW,219,3.0,7.0,81,0.00,,,0.00,406,HR-IXP-WINDi_r2_v1.2,2013-03-04 17:19:00,
2013-03-04 09:24:00,59.8,53.6,30.12,WSW,240,1.0,7.0,80,0.00,,,0.00,396,HR-IXP-WINDi_r2_v1.2,2013-03-04 17:24:00,
2013-03-04 09:29:00,60.4,53.1,30.12,South,183,5.0,6.0,77,0.00,,,0.00,181,HR-IXP-WINDi_r2_v1.2,2013-03-04 17:29:00,
2013-03-04 09:34:00,59.5,52.9,30.12,South,178,2.0,8.0,79,0.00,,,0.00,174,HR-IXP-WINDi_r2_v1.2,2013-03-04 17:34:00,
2013-03-04 09:39:00,59.2,52.6,30.12,SW,216,2.0,8.0,79,0.00,,,0.00,229,HR-IXP-WINDi_r2_v1.2,2013-03-04 17:39:00,
2013-03-04 09:45:00,59.5,52.9,30.12,SW,234,3.0,7.0,79,0.00,,,0.00,241,HR-IXP-WINDi_r2_v1.2,2013-03-04 17:45:00,
2013-03-04 09:50:00,59.3,52.7,30.12,SW,219,5.0,7.0,79,0.00,,,0.00,236,HR-IXP-WINDi_r2_v1.2,2013-03-04 17:50:00,
2013-03-04 09:55:00,59.4,52.8,30.12,West,272,4.0,7.0,79,0.00,,,0.00,265,HR-IXP-WINDi_r2_v1.2,2013-03-04 17:55:00,
2013-03-04 10:00:00,59.6,52.7,30.12,WSW,256,3.0,7.0,78,0.00,,,0.00,322,HR-IXP-WINDi_r2_v1.2,2013-03-04 18:00:00,
2013-03-04 10:05:00,60.1,53.5,30.12,West,267,3.0,6.0,79,0.00,,,0.00,267,HR-IXP-WINDi_r2_v1.2,2013-03-04 18:05:00,
2013-03-04 10:11:00,60.0,53.1,30.12,SSW,207,3.0,9.0,78,0.00,,,0.00,237,HR-IXP-WINDi_r2_v1.2,2013-03-04 18:11:00,
2013-03-04 10:16:00,59.7,52.8,30.12,WSW,240,2.0,9.0,78,0.00,,,0.00,206,HR-IXP-WINDi_r2_v1.2,2013-03-04 18:16:00,
2013-03-04 10:21:00,59.8,52.5,30.12,South,188,1.0,6.0,77,0.00,,,0.00,227,HR-IXP-WINDi_r2_v1.2,2013-03-04 18:21:00,
2013-03-04 10:26:00,60.0,52.7,30.12,SW,228,3.0,6.0,77,0.00,,,0.00,297,HR-IXP-WINDi_r2_v1.2,2013-03-04 18:26:00,
2013-03-04 10:29:00,60.0,52.7,30.12,SW,225,4.0,6.0,77,0.00,,,0.00,299,HR-IXP-WINDi_r2_v1.2,2013-03-04 18:29:00,
2013-03-04 10:34:00,60.2,52.9,30.12,SSW,194,2.0,6.0,77,0.00,,,0.00,413,HR-IXP-WINDi_r2_v1.2,2013-03-04 18:34:00,
2013-03-04 10:40:00,60.8,53.5,30.12,SSW,198,5.0,7.0,77,0.00,,,0.00,698,HR-IXP-WINDi_r2_v1.2,2013-03-04 18:40:00,
2013-03-04 10:45:00,61.3,53.6,30.12,South,178,4.0,8.0,76,0.00,,,0.00,483,HR-IXP-WINDi_r2_v1.2,2013-03-04 18:45:00,
2013-03-04 10:50:00,61.2,53.2,30.12,SW,222,3.0,9.0,75,0.00,,,0.00,387,HR-IXP-WINDi_r2_v1.2,2013-03-04 18:50:00,
2013-03-04 10:55:00,61.1,53.1,30.12,WSW,244,3.0,9.0,75,0.00,,,0.00,772,HR-IXP-WINDi_r2_v1.2,2013-03-04 18:55:00,
2013-03-04 11:00:00,62.3,53.8,30.12,SSE,152,4.0,7.0,74,0.00,,,0.00,777,HR-IXP-WINDi_r2_v1.2,2013-03-04 19:00:00,
2013-03-04 11:06:00,63.2,53.6,30.12,SSE,155,3.0,8.0,71,0.00,,,0.00,360,HR-IXP-WINDi_r2_v1.2,2013-03-04 19:06:00,
2013-03-04 11:11:00,63.8,53.4,30.12,South,182,2.0,8.0,69,0.00,,,0.00,508,HR-IXP-WINDi_r2_v1.2,2013-03-04 19:11:00,
2013-03-04 11:16:00,62.4,52.4,30.11,SSW,203,5.0,8.0,70,0.00,,,0.00,483,HR-IXP-WINDi_r2_v1.2,2013-03-04 19:16:00,
2013-03-04 11:21:00,62.6,53.0,30.11,SW,236,4.0,8.0,71,0.00,,,0.00,584,HR-IXP-WINDi_r2_v1.2,2013-03-04 19:21:00,
2013-03-04 11:27:00,63.0,54.1,30.11,SSW,208,1.0,7.0,73,0.00,,,0.00,900,HR-IXP-WINDi_r2_v1.2,2013-03-04 19:27:00,
2013-03-04 11:32:00,63.6,53.6,30.11,SSW,208,7.0,8.0,70,0.00,,,0.00,374,HR-IXP-WINDi_r2_v1.2,2013-03-04 19:32:00,
2013-03-04 11:37:00,63.5,53.1,30.11,SW,217,4.0,8.0,69,0.00,,,0.00,439,HR-IXP-WINDi_r2_v1.2,2013-03-04 19:37:00,
2013-03-04 11:42:00,62.5,52.5,30.11,WSW,243,1.0,10.0,70,0.00,,,0.00,332,HR-IXP-WINDi_r2_v1.2,2013-03-04 19:42:00,
2013-03-04 11:49:00,61.9,52.3,30.11,WSW,240,4.0,7.0,71,0.00,,,0.00,287,HR-IXP-WINDi_r2_v1.2,2013-03-04 19:49:00,
2013-03-04 11:54:00,62.0,52.4,30.11,SSW,213,4.0,8.0,71,0.00,,,0.00,323,HR-IXP-WINDi_r2_v1.2,2013-03-04 19:54:00,
2013-03-04 11:59:00,62.5,52.9,30.11,SSW,200,7.0,8.0,71,0.00,,,0.00,350,HR-IXP-WINDi_r2_v1.2,2013-03-04 19:59:00,
2013-03-04 12:04:00,62.4,52.8,30.11,South,175,2.0,8.0,71,0.00,,,0.00,684,HR-IXP-WINDi_r2_v1.2,2013-03-04 20:04:00,
2013-03-04 12:09:00,62.7,53.1,30.10,SSW,205,5.0,8.0,71,0.00,,,0.00,265,HR-IXP-WINDi_r2_v1.2,2013-03-04 20:09:00,
2013-03-04 12:14:00,62.9,53.3,30.10,WSW,256,0.0,6.0,71,0.00,,,0.00,619,HR-IXP-WINDi_r2_v1.2,2013-03-04 20:14:00,
2013-03-04 12:20:00,63.8,53.8,30.10,SW,227,4.0,9.0,70,0.00,,,0.00,788,HR-IXP-WINDi_r2_v1.2,2013-03-04 20:20:00,
2013-03-04 12:25:00,63.6,52.8,30.10,West,265,1.0,9.0,68,0.00,,,0.00,729,HR-IXP-WINDi_r2_v1.2,2013-03-04 20:25:00,
2013-03-04 12:30:00,64.2,53.4,30.10,WSW,240,5.0,6.0,68,0.00,,,0.00,751,HR-IXP-WINDi_r2_v1.2,2013-03-04 20:30:00,
2013-03-04 12:35:00,64.5,53.6,30.10,WSW,254,5.0,7.0,68,0.00,,,0.00,775,HR-IXP-WINDi_r2_v1.2,2013-03-04 20:35:00,
2013-03-04 12:41:00,64.1,53.3,30.09,WSW,242,4.0,8.0,68,0.00,,,0.00,758,HR-IXP-WINDi_r2_v1.2,2013-03-04 20:41:00,
2013-03-04 12:46:00,64.3,53.5,30.09,SSE,155,3.0,8.0,68,0.00,,,0.00,731,HR-IXP-WINDi_r2_v1.2,2013-03-04 20:46:00,
2013-03-04 12:51:00,64.6,53.7,30.09,SSW,198,4.0,8.0,68,0.00,,,0.00,724,HR-IXP-WINDi_r2_v1.2,2013-03-04 20:51:00,
2013-03-04 12:56:00,64.6,53.3,30.08,WSW,248,4.0,8.0,67,0.00,,,0.00,707,HR-IXP-WINDi_r2_v1.2,2013-03-04 20:56:00,
2013-03-04 13:01:00,63.6,52.8,30.08,WSW,251,0.0,8.0,68,0.00,,,0.00,705,HR-IXP-WINDi_r2_v1.2,2013-03-04 21:01:00,
2013-03-04 13:07:00,65.2,55.1,30.08,SW,215,3.0,8.0,70,0.00,,,0.00,684,HR-IXP-WINDi_r2_v1.2,2013-03-04 21:07:00,
2013-03-04 13:12:00,66.4,54.2,30.08,South,187,3.0,7.0,65,0.00,,,0.00,689,HR-IXP-WINDi_r2_v1.2,2013-03-04 21:12:00,
2013-03-04 13:17:00,65.5,53.4,30.08,South,180,6.0,7.0,65,0.00,,,0.00,677,HR-IXP-WINDi_r2_v1.2,2013-03-04 21:17:00,
2013-03-04 13:22:00,64.5,52.8,30.07,SSW,202,0.0,7.0,66,0.00,,,0.00,675,HR-IXP-WINDi_r2_v1.2,2013-03-04 21:22:00,
2013-03-04 13:27:00,68.5,54.5,30.07,South,172,3.0,7.0,61,0.00,,,0.00,670,HR-IXP-WINDi_r2_v1.2,2013-03-04 21:27:00,
2013-03-04 13:32:00,67.3,52.9,30.07,SSW,202,2.0,6.0,60,0.00,,,0.00,663,HR-IXP-WINDi_r2_v1.2,2013-03-04 21:32:00,
2013-03-04 13:38:00,66.6,53.1,30.07,South,169,2.0,6.0,62,0.00,,,0.00,656,HR-IXP-WINDi_r2_v1.2,2013-03-04 21:38:00,
2013-03-04 13:43:00,67.5,55.3,30.07,South,169,2.0,5.0,65,0.00,,,0.00,645,HR-IXP-WINDi_r2_v1.2,2013-03-04 21:43:00,
2013-03-04 13:48:00,66.2,51.9,30.07,WSW,250,4.0,4.0,60,0.00,,,0.00,636,HR-IXP-WINDi_r2_v1.2,2013-03-04 21:48:00,
2013-03-04 13:53:00,66.5,54.7,30.06,West,270,0.0,4.0,66,0.00,,,0.00,624,HR-IXP-WINDi_r2_v1.2,2013-03-04 21:53:00,
2013-03-04 13:58:00,68.1,53.6,30.06,SSW,199,1.0,4.0,60,0.00,,,0.00,617,HR-IXP-WINDi_r2_v1.2,2013-03-04 21:58:00,
2013-03-04 14:03:00,67.9,53.0,30.06,WSW,248,3.0,6.0,59,0.00,,,0.00,606,HR-IXP-WINDi_r2_v1.2,2013-03-04 22:03:00,
2013-03-04 14:08:00,67.2,53.7,30.06,South,170,2.0,7.0,62,0.00,,,0.00,598,HR-IXP-WINDi_r2_v1.2,2013-03-04 22:08:00,
2013-03-04 14:14:00,66.6,53.1,30.06,SSE,161,6.0,9.0,62,0.00,,,0.00,587,HR-IXP-WINDi_r2_v1.2,2013-03-04 22:14:00,
2013-03-04 14:19:00,67.2,53.2,30.05,WSW,258,4.0,9.0,61,0.00,,,0.00,578,HR-IXP-WINDi_r2_v1.2,2013-03-04 22:19:00,
2013-03-04 14:24:00,66.7,54.5,30.05,South,186,6.0,9.0,65,0.00,,,0.00,564,HR-IXP-WINDi_r2_v1.2,2013-03-04 22:24:00,
2013-03-04 14:29:00,66.3,53.3,30.05,SW,221,6.0,10.0,63,0.00,,,0.00,554,HR-IXP-WINDi_r2_v1.2,2013-03-04 22:29:00,
2013-03-04 14:34:00,67.1,54.0,30.05,SSW,200,5.0,10.0,63,0.00,,,0.00,540,HR-IXP-WINDi_r2_v1.2,2013-03-04 22:34:00,
2013-03-04 14:39:00,66.5,53.9,30.05,SSW,213,0.0,8.0,64,0.00,,,0.00,527,HR-IXP-WINDi_r2_v1.2,2013-03-04 22:39:00,
2013-03-04 14:45:00,66.4,53.8,30.05,WSW,240,4.0,9.0,64,0.00,,,0.00,510,HR-IXP-WINDi_r2_v1.2,2013-03-04 22:45:00,
2013-03-04 14:50:00,65.2,53.5,30.05,WSW,248,5.0,10.0,66,0.00,,,0.00,457,HR-IXP-WINDi_r2_v1.2,2013-03-04 22:50:00,
2013-03-04 14:55:00,65.1,53.8,30.05,South,185,3.0,12.0,67,0.00,,,0.00,448,HR-IXP-WINDi_r2_v1.2,2013-03-04 22:55:00,
2013-03-04 15:00:00,65.2,53.9,30.05,SSW,208,11.0,12.0,67,0.00,,,0.00,383,HR-IXP-WINDi_r2_v1.2,2013-03-04 23:00:00,
2013-03-04 15:05:00,64.1,53.7,30.06,SW,224,7.0,12.0,69,0.00,,,0.00,311,HR-IXP-WINDi_r2_v1.2,2013-03-04 23:05:00,
2013-03-04 15:11:00,63.8,53.8,30.05,WSW,238,6.0,12.0,70,0.00,,,0.00,283,HR-IXP-WINDi_r2_v1.2,2013-03-04 23:11:00,
2013-03-04 15:16:00,62.7,53.1,30.05,WSW,258,4.0,11.0,71,0.00,,,0.00,301,HR-IXP-WINDi_r2_v1.2,2013-03-04 23:16:00,
2013-03-04 15:21:00,62.6,53.4,30.05,SW,219,6.0,11.0,72,0.00,,,0.00,316,HR-IXP-WINDi_r2_v1.2,2013-03-04 23:21:00,
2013-03-04 15:26:00,62.2,53.4,30.05,WSW,256,3.0,12.0,73,0.00,,,0.00,330,HR-IXP-WINDi_r2_v1.2,2013-03-04 23:26:00,
2013-03-04 15:32:00,62.5,53.3,30.05,South,188,5.0,13.0,72,0.00,,,0.00,329,HR-IXP-WINDi_r2_v1.2,2013-03-04 23:32:00,
2013-03-04 15:37:00,62.4,53.6,30.05,West,259,4.0,13.0,73,0.00,,,0.00,330,HR-IXP-WINDi_r2_v1.2,2013-03-04 23:37:00,
2013-03-04 15:42:00,62.4,53.6,30.05,South,179,6.0,12.0,73,0.00,,,0.00,327,HR-IXP-WINDi_r2_v1.2,2013-03-04 23:42:00,
2013-03-04 15:47:00,62.2,53.0,30.05,SW,217,5.0,12.0,72,0.00,,,0.00,320,HR-IXP-WINDi_r2_v1.2,2013-03-04 23:47:00,
2013-03-04 15:52:00,62.2,53.0,30.05,SSW,192,4.0,11.0,72,0.00,,,0.00,316,HR-IXP-WINDi_r2_v1.2,2013-03-04 23:52:00,
2013-03-04 15:58:00,62.3,53.1,30.04,South,189,2.0,10.0,72,0.00,,,0.00,302,HR-IXP-WINDi_r2_v1.2,2013-03-04 23:58:00,
2013-03-04 16:03:00,62.8,53.6,30.05,SW,234,3.0,9.0,72,0.00,,,0.00,285,HR-IXP-WINDi_r2_v1.2,2013-03-05 00:03:00,
2013-03-04 16:08:00,62.8,53.6,30.05,SSW,192,4.0,9.0,72,0.00,,,0.00,267,HR-IXP-WINDi_r2_v1.2,2013-03-05 00:08:00,
2013-03-04 16:13:00,62.5,53.3,30.05,SW,229,3.0,9.0,72,0.00,,,0.00,251,HR-IXP-WINDi_r2_v1.2,2013-03-05 00:13:00,
2013-03-04 16:19:00,62.5,52.9,30.05,WSW,240,3.0,9.0,71,0.00,,,0.00,236,HR-IXP-WINDi_r2_v1.2,2013-03-05 00:19:00,
2013-03-04 16:24:00,62.3,52.7,30.05,SW,215,3.0,9.0,71,0.00,,,0.00,192,HR-IXP-WINDi_r2_v1.2,2013-03-05 00:24:00,
2013-03-04 16:29:00,62.0,52.8,30.05,SSW,211,8.0,8.0,72,0.00,,,0.00,200,HR-IXP-WINDi_r2_v1.2,2013-03-05 00:29:00,
2013-03-04 16:34:00,61.5,53.1,30.05,SSW,197,6.0,8.0,74,0.00,,,0.00,185,HR-IXP-WINDi_r2_v1.2,2013-03-05 00:34:00,
2013-03-04 16:39:00,61.1,52.3,30.05,SSW,196,7.0,8.0,73,0.00,,,0.00,171,HR-IXP-WINDi_r2_v1.2,2013-03-05 00:39:00,
2013-03-04 16:44:00,61.1,52.3,30.05,SSW,211,4.0,8.0,73,0.00,,,0.00,151,HR-IXP-WINDi_r2_v1.2,2013-03-05 00:44:00,
2013-03-04 16:49:00,61.1,52.3,30.05,SSW,194,3.0,9.0,73,0.00,,,0.00,139,HR-IXP-WINDi_r2_v1.2,2013-03-05 00:49:00,
2013-03-04 16:55:00,60.9,52.1,30.05,SW,222,3.0,9.0,73,0.00,,,0.00,123,HR-IXP-WINDi_r2_v1.2,2013-03-05 00:55:00,
2013-03-04 17:00:00,61.1,52.7,30.05,SW,217,4.0,8.0,74,0.00,,,0.00,109,HR-IXP-WINDi_r2_v1.2,2013-03-05 01:00:00,
2013-03-04 17:05:00,61.3,52.5,30.06,SSW,208,5.0,8.0,73,0.00,,,0.00,93,HR-IXP-WINDi_r2_v1.2,2013-03-05 01:05:00,
2013-03-04 17:11:00,61.1,52.3,30.06,South,189,3.0,8.0,73,0.00,,,0.00,77,HR-IXP-WINDi_r2_v1.2,2013-03-05 01:11:00,
2013-03-04 17:16:00,60.9,52.5,30.06,SSW,198,2.0,8.0,74,0.00,,,0.00,63,HR-IXP-WINDi_r2_v1.2,2013-03-05 01:16:00,
2013-03-04 17:21:00,60.5,52.5,30.06,SW,216,7.0,8.0,75,0.00,,,0.00,51,HR-IXP-WINDi_r2_v1.2,2013-03-05 01:21:00,
2013-03-04 17:26:00,59.9,52.6,30.07,South,189,5.0,9.0,77,0.00,,,0.00,39,HR-IXP-WINDi_r2_v1.2,2013-03-05 01:26:00,
2013-03-04 17:32:00,59.4,52.1,30.06,SW,219,7.0,9.0,77,0.00,,,0.00,30,HR-IXP-WINDi_r2_v1.2,2013-03-05 01:32:00,
2013-03-04 17:37:00,59.2,52.6,30.07,SSW,210,2.0,7.0,79,0.00,,,0.00,23,HR-IXP-WINDi_r2_v1.2,2013-03-05 01:37:00,
2013-03-04 17:42:00,58.9,52.3,30.07,South,187,2.0,7.0,79,0.00,,,0.00,14,HR-IXP-WINDi_r2_v1.2,2013-03-05 01:42:00,
2013-03-04 17:47:00,58.6,52.4,30.07,South,190,1.0,7.0,80,0.00,,,0.00,9,HR-IXP-WINDi_r2_v1.2,2013-03-05 01:47:00,
2013-03-04 17:52:00,58.2,52.3,30.07,SSW,213,6.0,7.0,81,0.00,,,0.00,5,HR-IXP-WINDi_r2_v1.2,2013-03-05 01:52:00,
2013-03-04 17:58:00,58.0,52.5,30.07,SW,215,1.0,7.0,82,0.00,,,0.00,0,HR-IXP-WINDi_r2_v1.2,2013-03-05 01:58:00,
2013-03-04 18:03:00,57.9,52.4,30.07,SW,219,4.0,7.0,82,0.00,,,0.00,0,HR-IXP-WINDi_r2_v1.2,2013-03-05 02:03:00,
2013-03-04 18:08:00,57.8,52.6,30.08,South,190,0.0,5.0,83,0.00,,,0.00,0,HR-IXP-WINDi_r2_v1.2,2013-03-05 02:08:00,
2013-03-04 18:13:00,57.7,52.5,30.08,SSW,211,1.0,5.0,83,0.00,,,0.00,0,HR-IXP-WINDi_r2_v1.2,2013-03-05 02:13:00,
2013-03-04 18:18:00,57.7,52.5,30.08,SSW,194,1.0,4.0,83,0.00,,,0.00,0,HR-IXP-WINDi_r2_v1.2,2013-03-05 02:18:00,
2013-03-04 18:23:00,57.5,52.3,30.09,SSE,166,4.0,5.0,83,0.00,,,0.00,0,HR-IXP-WINDi_r2_v1.2,2013-03-05 02:23:00,
2013-03-04 18:29:00,57.4,52.2,30.09,South,173,1.0,5.0,83,0.00,,,0.00,0,HR-IXP-WINDi_r2_v1.2,2013-03-05 02:29:00,
2013-03-04 18:34:00,57.3,52.4,30.08,SSE,166,1.0,5.0,84,0.00,,,0.00,0,HR-IXP-WINDi_r2_v1.2,2013-03-05 02:34:00,
2013-03-04 18:39:00,57.3,52.4,30.09,South,171,2.0,5.0,84,0.00,,,0.00,0,HR-IXP-WINDi_r2_v1.2,2013-03-05 02:39:00,
2013-03-04 18:44:00,57.2,52.3,30.09,South,172,0.0,4.0,84,0.00,,,0.00,0,HR-IXP-WINDi_r2_v1.2,2013-03-05 02:44:00,
2013-03-04 18:50:00,57.1,52.2,30.09,SSE,165,1.0,4.0,84,0.00,,,0.00,0,HR-IXP-WINDi_r2_v1.2,2013-03-05 02:50:00,
2013-03-04 18:55:00,57.1,52.6,30.09,SSE,165,0.0,4.0,85,0.00,,,0.00,0,HR-IXP-WINDi_r2_v1.2,2013-03-05 02:55:00,
2013-03-04 19:00:00,56.9,52.4,30.09,SSE,165,1.0,3.0,85,0.00,,,0.00,0,HR-IXP-WINDi_r2_v1.2,2013-03-05 03:00:00,
2013-03-04 19:05:00,56.7,52.2,30.09,SSE,165,0.0,4.0,85,0.00,,,0.00,0,HR-IXP-WINDi_r2_v1.2,2013-03-05 03:05:00,
2013-03-04 19:10:00,56.6,52.1,30.09,South,175,3.0,4.0,85,0.00,,,0.00,0,HR-IXP-WINDi_r2_v1.2,2013-03-05 03:10:00,
2013-03-04 19:15:00,56.5,52.3,30.09,SSE,165,1.0,4.0,86,0.00,,,0.00,0,HR-IXP-WINDi_r2_v1.2,2013-03-05 03:15:00,
2013-03-04 19:21:00,56.4,52.2,30.09,SSE,165,2.0,4.0,86,0.00,,,0.00,0,HR-IXP-WINDi_r2_v1.2,2013-03-05 03:21:00,
2013-03-04 19:26:00,56.4,52.5,30.09,SSW,205,3.0,4.0,87,0.00,,,0.00,0,HR-IXP-WINDi_r2_v1.2,2013-03-05 03:26:00,
2013-03-04 19:31:00,56.4,52.5,30.10,South,181,3.0,3.0,87,0.00,,,0.00,0,HR-IXP-WINDi_r2_v1.2,2013-03-05 03:31:00,
2013-03-04 19:36:00,56.5,52.6,30.10,SSW,209,3.0,5.0,87,0.00,,,0.00,0,HR-IXP-WINDi_r2_v1.2,2013-03-05 03:36:00,
2013-03-04 19:41:00,56.3,52.7,30.10,SSW,205,4.0,5.0,88,0.00,,,0.00,0,HR-IXP-WINDi_r2_v1.2,2013-03-05 03:41:00,
2013-03-04 19:47:00,56.1,52.5,30.10,SW,215,2.0,5.0,88,0.00,,,0.00,0,HR-IXP-WINDi_r2_v1.2,2013-03-05 03:47:00,
2013-03-04 19:52:00,56.1,52.5,30.10,SW,215,0.0,5.0,88,0.00,,,0.00,0,HR-IXP-WINDi_r2_v1.2,2013-03-05 03:52:00,
2013-03-04 19:57:00,56.0,52.7,30.10,SW,215,1.0,3.0,89,0.00,,,0.00,0,HR-IXP-WINDi_r2_v1.2,2013-03-05 03:57:00,
2013-03-04 20:02:00,55.9,52.3,30.11,SW,215,0.0,3.0,88,0.00,,,0.00,0,HR-IXP-WINDi_r2_v1.2,2013-03-05 04:02:00,
2013-03-04 20:08:00,55.9,52.6,30.11,SW,215,0.0,1.0,89,0.00,,,0.00,0,HR-IXP-WINDi_r2_v1.2,2013-03-05 04:08:00,
2013-03-04 20:13:00,55.9,52.6,30.11,SW,215,0.0,1.0,89,0.00,,,0.00,0,HR-IXP-WINDi_r2_v1.2,2013-03-05 04:13:00,
2013-03-04 20:18:00,55.9,52.3,30.11,SW,215,0.0,2.0,88,0.00,,,0.00,0,HR-IXP-WINDi_r2_v1.2,2013-03-05 04:18:00,
2013-03-04 20:23:00,55.9,52.3,30.12,SW,219,0.0,3.0,88,0.00,,,0.00,0,HR-IXP-WINDi_r2_v1.2,2013-03-05 04:23:00,
2013-03-04 20:29:00,55.9,52.3,30.11,SW,236,0.0,3.0,88,0.00,,,0.00,0,HR-IXP-WINDi_r2_v1.2,2013-03-05 04:29:00,
2013-03-04 20:34:00,55.9,52.0,30.12,SW,236,1.0,3.0,87,0.00,,,0.00,0,HR-IXP-WINDi_r2_v1.2,2013-03-05 04:34:00,
2013-03-04 20:39:00,56.0,52.1,30.12,SW,236,0.0,2.0,87,0.00,,,0.00,0,HR-IXP-WINDi_r2_v1.2,2013-03-05 04:39:00,
2013-03-04 20:44:00,56.0,52.1,30.12,SW,236,0.0,2.0,87,0.00,,,0.00,0,HR-IXP-WINDi_r2_v1.2,2013-03-05 04:44:00,
2013-03-04 20:49:00,55.9,52.0,30.13,SW,236,0.0,1.0,87,0.00,,,0.00,0,HR-IXP-WINDi_r2_v1.2,2013-03-05 04:49:00,
2013-03-04 20:54:00,55.9,52.0,30.12,SW,236,0.0,3.0,87,0.00,,,0.00,0,HR-IXP-WINDi_r2_v1.2,2013-03-05 04:54:00,
2013-03-04 21:00:00,55.7,51.8,30.12,SW,236,0.0,3.0,87,0.00,,,0.00,0,HR-IXP-WINDi_r2_v1.2,2013-03-05 05:00:00,
2013-03-04 21:05:00,55.6,51.7,30.12,West,259,2.0,3.0,87,0.00,,,0.00,0,HR-IXP-WINDi_r2_v1.2,2013-03-05 05:05:00,
2013-03-04 21:10:00,55.3,51.4,30.12,NNW,344,4.0,4.0,87,0.00,,,0.00,0,HR-IXP-WINDi_r2_v1.2,2013-03-05 05:10:00,
2013-03-04 21:15:00,55.3,51.7,30.12,NNE,13,2.0,5.0,88,0.00,,,0.00,0,HR-IXP-WINDi_r2_v1.2,2013-03-05 05:15:00,
2013-03-04 21:20:00,55.2,51.6,30.12,NNE,13,3.0,5.0,88,0.00,,,0.00,0,HR-IXP-WINDi_r2_v1.2,2013-03-05 05:20:00,
2013-03-04 21:26:00,55.0,51.4,30.12,NNE,13,2.0,3.0,88,0.00,,,0.00,0,HR-IXP-WINDi_r2_v1.2,2013-03-05 05:26:00,
2013-03-04 21:31:00,55.0,51.4,30.12,NNE,13,2.0,3.0,88,0.00,,,0.00,0,HR-IXP-WINDi_r2_v1.2,2013-03-05 05:31:00,
2013-03-04 21:36:00,55.0,51.4,30.12,NNE,13,1.0,3.0,88,0.00,,,0.00,0,HR-IXP-WINDi_r2_v1.2,2013-03-05 05:36:00,
2013-03-04 21:41:00,55.0,51.4,30.12,NNE,13,2.0,4.0,88,0.00,,,0.00,0,HR-IXP-WINDi_r2_v1.2,2013-03-05 05:41:00,
2013-03-04 21:46:00,55.0,51.4,30.12,NNE,13,3.0,4.0,88,0.00,,,0.00,0,HR-IXP-WINDi_r2_v1.2,2013-03-05 05:46:00,
2013-03-04 21:51:00,54.9,51.3,30.12,NNE,13,2.0,3.0,88,0.00,,,0.00,0,HR-IXP-WINDi_r2_v1.2,2013-03-05 05:51:00,
2013-03-04 21:57:00,54.8,51.2,30.12,NNE,13,0.0,3.0,88,0.00,,,0.00,0,HR-IXP-WINDi_r2_v1.2,2013-03-05 05:57:00,
2013-03-04 22:02:00,54.9,51.7,30.12,NNE,13,0.0,2.0,89,0.00,,,0.00,0,HR-IXP-WINDi_r2_v1.2,2013-03-05 06:02:00,
2013-03-04 22:07:00,54.8,51.2,30.12,NNE,13,0.0,1.0,88,0.00,,,0.00,0,HR-IXP-WINDi_r2_v1.2,2013-03-05 06:07:00,
2013-03-04 22:12:00,54.9,51.7,30.12,NNE,13,0.0,0.0,89,0.00,,,0.00,0,HR-IXP-WINDi_r2_v1.2,2013-03-05 06:12:00,
2013-03-04 22:18:00,54.7,51.2,30.12,NNE,13,0.0,0.0,88,0.00,,,0.00,0,HR-IXP-WINDi_r2_v1.2,2013-03-05 06:18:00,
2013-03-04 22:23:00,54.1,50.6,30.11,NNE,13,0.0,1.0,88,0.00,,,0.00,0,HR-IXP-WINDi_r2_v1.2,2013-03-05 06:23:00,
2013-03-04 22:28:00,54.0,50.8,30.11,NNE,13,0.0,1.0,89,0.00,,,0.00,0,HR-IXP-WINDi_r2_v1.2,2013-03-05 06:28:00,
2013-03-04 22:33:00,54.1,50.9,30.11,NNE,13,0.0,1.0,89,0.00,,,0.00,0,HR-IXP-WINDi_r2_v1.2,2013-03-05 06:33:00,
2013-03-04 22:38:00,54.4,51.2,30.11,NNE,13,0.0,1.0,89,0.00,,,0.00,0,HR-IXP-WINDi_r2_v1.2,2013-03-05 06:38:00,
2013-03-04 22:44:00,54.3,51.1,30.11,NNE,13,0.0,0.0,89,0.00,,,0.00,0,HR-IXP-WINDi_r2_v1.2,2013-03-05 06:44:00,
2013-03-04 22:49:00,54.2,51.0,30.12,NNE,13,0.0,0.0,89,0.00,,,0.00,0,HR-IXP-WINDi_r2_v1.2,2013-03-05 06:49:00,
2013-03-04 22:54:00,54.0,50.8,30.11,NNE,13,0.0,0.0,89,0.00,,,0.00,0,HR-IXP-WINDi_r2_v1.2,2013-03-05 06:54:00,
2013-03-04 22:59:00,54.1,50.9,30.12,NNE,13,0.0,0.0,89,0.00,,,0.00,0,HR-IXP-WINDi_r2_v1.2,2013-03-05 06:59:00,
2013-03-04 23:04:00,54.1,51.2,30.11,NNE,13,0.0,0.0,90,0.00,,,0.00,0,HR-IXP-WINDi_r2_v1.2,2013-03-05 07:04:00,
2013-03-04 23:09:00,54.2,51.3,30.12,NNE,13,0.0,0.0,90,0.00,,,0.00,0,HR-IXP-WINDi_r2_v1.2,2013-03-05 07:09:00,
2013-03-04 23:14:00,54.3,51.4,30.12,NNE,13,0.0,0.0,90,0.00,,,0.00,0,HR-IXP-WINDi_r2_v1.2,2013-03-05 07:14:00,
2013-03-04 23:20:00,53.9,51.0,30.12,NNE,13,0.0,0.0,90,0.00,,,0.00,0,HR-IXP-WINDi_r2_v1.2,2013-03-05 07:20:00,
2013-03-04 23:25:00,53.9,51.0,30.12,NNE,13,0.0,0.0,90,0.00,,,0.00,0,HR-IXP-WINDi_r2_v1.2,2013-03-05 07:25:00,
2013-03-04 23:30:00,53.9,51.0,30.12,NNE,13,0.0,0.0,90,0.00,,,0.00,0,HR-IXP-WINDi_r2_v1.2,2013-03-05 07:30:00,
2013-03-04 23:35:00,53.7,50.8,30.12,NNE,13,0.0,0.0,90,0.00,,,0.00,0,HR-IXP-WINDi_r2_v1.2,2013-03-05 07:35:00,
2013-03-04 23:41:00,53.8,51.2,30.12,NNE,13,0.0,0.0,91,0.00,,,0.00,0,HR-IXP-WINDi_r2_v1.2,2013-03-05 07:41:00,
2013-03-04 23:46:00,53.7,51.1,30.12,NNE,13,0.0,0.0,91,0.00,,,0.00,0,HR-IXP-WINDi_r2_v1.2,2013-03-05 07:46:00,
2013-03-04 23:51:00,53.5,50.9,30.12,NNE,13,0.0,0.0,91,0.00,,,0.00,0,HR-IXP-WINDi_r2_v1.2,2013-03-05 07:51:00,
2013-03-04 23:56:00,53.6,51.0,30.12,NNE,13,0.0,0.0,91,0.00,,,0.00,0,HR-IXP-WINDi_r2_v1.2,2013-03-05 07:56:00,